Location: Rio Tanui
(39.9167°N, 8.5167°E)
Time: 01:36:05
(UTC+00:00)

Cosmos 1980 - Pass Details

Date: 08 February 2023
Orbit: 838 x 848 km, 71.0° (Epoch: 01 April)

Event Time Altitude Azimuth Distance (km) Brightness Sun altitude
Rises 18:48:37 0° 198° (SSW) 3,374 7.1 -22.5°
Reaches altitude 10° 18:51:02 10° 197° (SSW) 2,443 6.3 -23.0°
Maximum altitude 18:56:39 80° 112° (ESE) 855 3.5 -24.1°
Enters shadow 18:58:36 42° 31° (NNE) 1,175 4.2 -24.4°
